Time,TemperatureF,DewpointF,PressureIn,WindDirection,WindDirectionDegrees,WindSpeedMPH,WindSpeedGustMPH,Humidity,HourlyPrecipIn,Conditions,Clouds,dailyrainin,SolarRadiationWatts/m^2,SoftwareType,DateUTC
2013-01-27 00:02:00,50.5,49.0,30.27,East,90,0.0,0.0,95,0.00,,,0.00,0,weatherlink.com 1.10,2013-01-27 05:02:00,
2013-01-27 00:17:00,50.1,49.0,30.27,East,90,0.0,0.0,95,0.00,,,0.00,0,weatherlink.com 1.10,2013-01-27 05:17:00,
2013-01-27 00:32:00,49.6,48.0,30.27,East,90,0.0,0.0,95,0.00,,,0.00,0,weatherlink.com 1.10,2013-01-27 05:32:00,
2013-01-27 00:47:00,49.5,48.0,30.27,East,90,0.0,0.0,96,0.00,,,0.00,0,weatherlink.com 1.10,2013-01-27 05:47:00,
2013-01-27 01:02:00,49.4,48.0,30.27,East,90,0.0,0.0,96,0.00,,,0.00,0,weatherlink.com 1.10,2013-01-27 06:02:00,
2013-01-27 01:17:00,49.3,48.0,30.27,East,90,0.0,0.0,96,0.00,,,0.00,0,weatherlink.com 1.10,2013-01-27 06:17:00,
2013-01-27 01:33:00,48.9,48.0,30.27,East,90,0.0,0.0,95,0.00,,,0.00,0,weatherlink.com 1.10,2013-01-27 06:33:00,
2013-01-27 01:48:00,48.8,48.0,30.27,East,90,0.0,0.0,96,0.00,,,0.00,0,weatherlink.com 1.10,2013-01-27 06:48:00,
2013-01-27 02:03:00,48.5,48.0,30.27,East,90,0.0,0.0,96,0.00,,,0.00,0,weatherlink.com 1.10,2013-01-27 07:03:00,
2013-01-27 02:18:00,48.4,47.0,30.27,East,90,0.0,0.0,96,0.00,,,0.00,0,weatherlink.com 1.10,2013-01-27 07:18:00,
2013-01-27 02:33:00,48.5,48.0,30.27,East,90,0.0,1.0,96,0.00,,,0.00,0,weatherlink.com 1.10,2013-01-27 07:33:00,
2013-01-27 02:48:00,48.8,48.0,30.27,North,355,0.0,5.0,97,0.00,,,0.00,0,weatherlink.com 1.10,2013-01-27 07:48:00,
2013-01-27 03:03:00,49.2,48.0,30.27,North,355,0.0,0.0,97,0.00,,,0.00,0,weatherlink.com 1.10,2013-01-27 08:03:00,
2013-01-27 03:18:00,49.2,48.0,30.27,North,355,0.0,0.0,97,0.00,,,0.00,0,weatherlink.com 1.10,2013-01-27 08:18:00,
2013-01-27 03:33:00,49.0,48.0,30.27,North,355,0.0,0.0,97,0.00,,,0.00,0,weatherlink.com 1.10,2013-01-27 08:33:00,
2013-01-27 03:48:00,48.8,48.0,30.27,North,355,0.0,0.0,97,0.00,,,0.00,0,weatherlink.com 1.10,2013-01-27 08:48:00,
2013-01-27 04:03:00,48.7,48.0,30.27,North,355,0.0,0.0,96,0.00,,,0.00,0,weatherlink.com 1.10,2013-01-27 09:03:00,
2013-01-27 04:18:00,48.4,47.0,30.26,North,355,0.0,0.0,96,0.00,,,0.00,0,weatherlink.com 1.10,2013-01-27 09:18:00,
2013-01-27 04:33:00,48.2,47.0,30.27,North,355,0.0,0.0,97,0.00,,,0.00,0,weatherlink.com 1.10,2013-01-27 09:33:00,
2013-01-27 04:48:00,48.1,47.0,30.27,North,355,0.0,0.0,96,0.00,,,0.00,0,weatherlink.com 1.10,2013-01-27 09:48:00,
2013-01-27 05:03:00,48.0,47.0,30.27,North,355,0.0,0.0,97,0.00,,,0.00,0,weatherlink.com 1.10,2013-01-27 10:03:00,
2013-01-27 05:18:00,48.1,47.0,30.27,North,355,0.0,0.0,97,0.00,,,0.00,0,weatherlink.com 1.10,2013-01-27 10:18:00,
2013-01-27 05:33:00,48.3,48.0,30.28,North,355,0.0,1.0,97,0.00,,,0.00,0,weatherlink.com 1.10,2013-01-27 10:33:00,
2013-01-27 05:48:00,49.7,49.0,30.28,North,5,1.0,3.0,97,0.00,,,0.00,0,weatherlink.com 1.10,2013-01-27 10:48:00,
2013-01-27 06:03:00,50.5,50.0,30.29,North,5,0.0,2.0,97,0.00,,,0.00,0,weatherlink.com 1.10,2013-01-27 11:03:00,
2013-01-27 06:18:00,50.4,50.0,30.29,North,5,0.0,1.0,97,0.00,,,0.00,0,weatherlink.com 1.10,2013-01-27 11:18:00,
2013-01-27 06:33:00,50.0,49.0,30.30,North,5,0.0,0.0,97,0.00,,,0.00,0,weatherlink.com 1.10,2013-01-27 11:33:00,
2013-01-27 06:48:00,49.8,49.0,30.30,North,9,0.0,2.0,97,0.00,,,0.00,0,weatherlink.com 1.10,2013-01-27 11:48:00,
2013-01-27 07:03:00,49.8,49.0,30.30,North,9,0.0,0.0,97,0.00,,,0.00,0,weatherlink.com 1.10,2013-01-27 12:03:00,
2013-01-27 07:18:00,50.2,49.0,30.30,North,9,2.0,2.0,97,0.00,,,0.00,5,weatherlink.com 1.10,2013-01-27 12:18:00,
2013-01-27 07:33:00,51.1,51.0,30.31,NNE,14,1.0,3.0,98,0.00,,,0.00,12,weatherlink.com 1.10,2013-01-27 12:33:00,
2013-01-27 07:48:00,51.9,51.0,30.31,NNE,14,0.0,1.0,98,0.00,,,0.00,19,weatherlink.com 1.10,2013-01-27 12:48:00,
2013-01-27 08:03:00,52.5,52.0,30.31,NNE,14,1.0,2.0,98,0.00,,,0.00,25,weatherlink.com 1.10,2013-01-27 13:03:00,
2013-01-27 08:18:00,53.6,53.0,30.32,NNE,32,2.0,5.0,98,0.00,,,0.00,30,weatherlink.com 1.10,2013-01-27 13:18:00,
2013-01-27 08:33:00,55.7,55.0,30.32,North,5,1.0,4.0,98,0.00,,,0.00,37,weatherlink.com 1.10,2013-01-27 13:33:00,
2013-01-27 08:48:00,57.4,57.0,30.33,North,11,1.0,4.0,98,0.00,,,0.00,46,weatherlink.com 1.10,2013-01-27 13:48:00,
2013-01-27 09:03:00,58.9,58.0,30.33,North,360,3.0,4.0,98,0.00,,,0.00,47,weatherlink.com 1.10,2013-01-27 14:03:00,
2013-01-27 09:18:00,60.1,60.0,30.33,North,9,1.0,5.0,98,0.00,,,0.00,42,weatherlink.com 1.10,2013-01-27 14:18:00,
2013-01-27 09:33:00,61.3,61.0,30.34,North,5,1.0,4.0,98,0.00,,,0.00,243,weatherlink.com 1.10,2013-01-27 14:33:00,
2013-01-27 09:49:00,62.8,62.0,30.34,East,82,1.0,4.0,98,0.00,,,0.00,476,weatherlink.com 1.10,2013-01-27 14:49:00,
2013-01-27 10:04:00,65.9,65.0,30.34,North,355,3.0,5.0,98,0.00,,,0.00,529,weatherlink.com 1.10,2013-01-27 15:04:00,
2013-01-27 10:19:00,70.3,64.0,30.35,North,5,3.0,6.0,80,0.00,,,0.00,592,weatherlink.com 1.10,2013-01-27 15:19:00,
2013-01-27 10:34:00,73.6,63.0,30.35,ESE,118,3.0,5.0,70,0.00,,,0.00,619,weatherlink.com 1.10,2013-01-27 15:34:00,
2013-01-27 10:49:00,75.2,63.0,30.34,North,360,1.0,7.0,65,0.01,,,0.01,647,weatherlink.com 1.10,2013-01-27 15:49:00,
2013-01-27 11:04:00,76.4,60.0,30.35,ESE,115,0.0,6.0,57,0.01,,,0.01,668,weatherlink.com 1.10,2013-01-27 16:04:00,
2013-01-27 11:19:00,77.6,61.0,30.34,NNE,18,4.0,7.0,57,0.01,,,0.01,691,weatherlink.com 1.10,2013-01-27 16:19:00,
2013-01-27 11:34:00,78.3,61.0,30.34,NE,48,3.0,5.0,55,0.01,,,0.01,707,weatherlink.com 1.10,2013-01-27 16:34:00,
2013-01-27 11:49:00,77.6,58.0,30.34,NE,40,1.0,7.0,52,0.00,,,0.01,724,weatherlink.com 1.10,2013-01-27 16:49:00,
2013-01-27 12:04:00,76.9,61.0,30.33,ESE,121,0.0,8.0,58,0.00,,,0.01,737,weatherlink.com 1.10,2013-01-27 17:04:00,
2013-01-27 12:19:00,77.0,60.0,30.33,NE,53,1.0,8.0,56,0.00,,,0.01,740,weatherlink.com 1.10,2013-01-27 17:19:00,
2013-01-27 12:34:00,77.4,59.0,30.32,North,355,6.0,6.0,54,0.00,,,0.01,735,weatherlink.com 1.10,2013-01-27 17:34:00,
2013-01-27 12:49:00,77.6,61.0,30.31,NNE,26,0.0,8.0,56,0.00,,,0.01,673,weatherlink.com 1.10,2013-01-27 17:49:00,
2013-01-27 13:04:00,77.1,59.0,30.30,East,94,2.0,8.0,54,0.00,,,0.01,691,weatherlink.com 1.10,2013-01-27 18:04:00,
2013-01-27 13:19:00,76.7,60.0,30.30,North,355,4.0,8.0,57,0.00,,,0.01,715,weatherlink.com 1.10,2013-01-27 18:19:00,
2013-01-27 13:34:00,76.8,60.0,30.29,East,80,1.0,7.0,56,0.00,,,0.01,703,weatherlink.com 1.10,2013-01-27 18:34:00,
2013-01-27 13:49:00,77.0,60.0,30.29,East,88,5.0,10.0,56,0.00,,,0.01,682,weatherlink.com 1.10,2013-01-27 18:49:00,
2013-01-27 14:04:00,77.0,60.0,30.29,NNE,12,2.0,10.0,57,0.00,,,0.01,659,weatherlink.com 1.10,2013-01-27 19:04:00,
2013-01-27 14:19:00,75.8,59.0,30.28,East,98,1.0,9.0,56,0.00,,,0.01,640,weatherlink.com 1.10,2013-01-27 19:19:00,
2013-01-27 14:34:00,75.4,58.0,30.28,NE,55,3.0,8.0,56,0.00,,,0.01,601,weatherlink.com 1.10,2013-01-27 19:34:00,
2013-01-27 14:49:00,75.1,59.0,30.28,ENE,69,2.0,9.0,58,0.00,,,0.01,568,weatherlink.com 1.10,2013-01-27 19:49:00,
2013-01-27 15:04:00,75.3,61.0,30.28,NNW,344,4.0,7.0,61,0.00,,,0.01,62,weatherlink.com 1.10,2013-01-27 20:04:00,
2013-01-27 15:20:00,75.7,60.0,30.27,NNE,15,2.0,10.0,58,0.00,,,0.01,44,weatherlink.com 1.10,2013-01-27 20:20:00,
2013-01-27 15:34:00,75.1,60.0,30.27,East,82,2.0,8.0,59,0.00,,,0.01,42,weatherlink.com 1.10,2013-01-27 20:34:00,
2013-01-27 15:49:00,75.2,60.0,30.27,East,82,0.0,7.0,59,0.00,,,0.01,40,weatherlink.com 1.10,2013-01-27 20:49:00,
2013-01-27 16:04:00,75.3,60.0,30.28,North,5,3.0,5.0,60,0.00,,,0.01,39,weatherlink.com 1.10,2013-01-27 21:04:00,
2013-01-27 16:19:00,75.1,60.0,30.28,SE,135,2.0,5.0,59,0.00,,,0.01,35,weatherlink.com 1.10,2013-01-27 21:19:00,
2013-01-27 16:34:00,74.5,60.0,30.28,NNE,14,3.0,7.0,61,0.00,,,0.01,33,weatherlink.com 1.10,2013-01-27 21:34:00,
2013-01-27 16:49:00,73.6,60.0,30.28,North,360,0.0,6.0,63,0.00,,,0.01,30,weatherlink.com 1.10,2013-01-27 21:49:00,
2013-01-27 17:04:00,72.9,60.0,30.29,NNE,20,2.0,5.0,64,0.00,,,0.01,26,weatherlink.com 1.10,2013-01-27 22:04:00,
2013-01-27 17:19:00,72.1,60.0,30.29,ESE,116,3.0,6.0,66,0.00,,,0.01,21,weatherlink.com 1.10,2013-01-27 22:19:00,
2013-01-27 17:34:00,71.4,60.0,30.30,NE,42,0.0,2.0,67,0.00,,,0.01,16,weatherlink.com 1.10,2013-01-27 22:34:00,
2013-01-27 17:49:00,70.6,60.0,30.30,NE,42,0.0,0.0,69,0.00,,,0.01,7,weatherlink.com 1.10,2013-01-27 22:49:00,
2013-01-27 18:04:00,69.2,60.0,30.30,NE,42,0.0,0.0,72,0.00,,,0.01,0,weatherlink.com 1.10,2013-01-27 23:04:00,
2013-01-27 18:19:00,67.8,60.0,30.30,NE,42,0.0,0.0,75,0.00,,,0.01,0,weatherlink.com 1.10,2013-01-27 23:19:00,
2013-01-27 18:34:00,66.3,59.0,30.31,NE,42,0.0,0.0,78,0.00,,,0.01,0,weatherlink.com 1.10,2013-01-27 23:34:00,
2013-01-27 18:49:00,64.8,59.0,30.31,NE,42,0.0,0.0,82,0.00,,,0.01,0,weatherlink.com 1.10,2013-01-27 23:49:00,
2013-01-27 19:04:00,63.6,58.0,30.31,NE,42,0.0,0.0,83,0.00,,,0.01,0,weatherlink.com 1.10,2013-01-28 00:04:00,
2013-01-27 19:19:00,62.6,58.0,30.32,NE,42,0.0,0.0,85,0.00,,,0.01,0,weatherlink.com 1.10,2013-01-28 00:19:00,
2013-01-27 19:34:00,62.0,58.0,30.32,NE,42,0.0,0.0,86,0.00,,,0.01,0,weatherlink.com 1.10,2013-01-28 00:34:00,
2013-01-27 19:49:00,61.4,58.0,30.32,NE,42,0.0,0.0,87,0.00,,,0.01,0,weatherlink.com 1.10,2013-01-28 00:49:00,
2013-01-27 20:04:00,60.9,58.0,30.32,NE,42,0.0,0.0,89,0.00,,,0.01,0,weatherlink.com 1.10,2013-01-28 01:04:00,
2013-01-27 20:19:00,60.4,58.0,30.32,NE,42,0.0,0.0,90,0.00,,,0.01,0,weatherlink.com 1.10,2013-01-28 01:19:00,
2013-01-27 20:35:00,60.0,57.0,30.32,NE,42,0.0,0.0,91,0.00,,,0.01,0,weatherlink.com 1.10,2013-01-28 01:35:00,
2013-01-27 20:49:00,59.7,57.0,30.33,NE,42,0.0,0.0,92,0.00,,,0.01,0,weatherlink.com 1.10,2013-01-28 01:49:00,
2013-01-27 21:04:00,59.5,57.0,30.33,NE,42,0.0,0.0,92,0.00,,,0.01,0,weatherlink.com 1.10,2013-01-28 02:04:00,
2013-01-27 21:19:00,59.2,57.0,30.33,NE,42,0.0,0.0,93,0.00,,,0.01,0,weatherlink.com 1.10,2013-01-28 02:19:00,
2013-01-27 21:34:00,59.2,57.0,30.34,NE,42,1.0,2.0,93,0.00,,,0.01,0,weatherlink.com 1.10,2013-01-28 02:34:00,
2013-01-27 21:49:00,59.8,58.0,30.33,NE,42,0.0,1.0,94,0.00,,,0.01,0,weatherlink.com 1.10,2013-01-28 02:49:00,
2013-01-27 22:05:00,60.3,59.0,30.33,NE,42,0.0,0.0,94,0.00,,,0.01,0,weatherlink.com 1.10,2013-01-28 03:05:00,
2013-01-27 22:19:00,60.8,59.0,30.34,NE,42,0.0,0.0,95,0.00,,,0.01,0,weatherlink.com 1.10,2013-01-28 03:19:00,
2013-01-27 22:34:00,61.1,59.0,30.34,NE,42,0.0,0.0,94,0.00,,,0.01,0,weatherlink.com 1.10,2013-01-28 03:34:00,
2013-01-27 22:49:00,61.4,60.0,30.34,ENE,71,1.0,2.0,95,0.00,,,0.01,0,weatherlink.com 1.10,2013-01-28 03:49:00,
2013-01-27 23:04:00,62.3,61.0,30.34,ENE,71,0.0,1.0,96,0.00,,,0.01,0,weatherlink.com 1.10,2013-01-28 04:04:00,
2013-01-27 23:20:00,63.4,62.0,30.33,ENE,71,1.0,3.0,95,0.00,,,0.01,0,weatherlink.com 1.10,2013-01-28 04:20:00,
2013-01-27 23:35:00,65.1,63.0,30.32,ENE,65,0.0,5.0,93,0.00,,,0.01,0,weatherlink.com 1.10,2013-01-28 04:35:00,
2013-01-27 23:50:00,66.3,63.0,30.32,ESE,115,0.0,4.0,90,0.00,,,0.01,0,weatherlink.com 1.10,2013-01-28 04:50:00,